Wind_Speed
41 41 42 43 43 43 43 44 44 44 45 44 42 40 39 38 38 39 40 41 42 43 44 44 45 45 45 45 46 47 48 49 50 51 51 52 52 52 52 51 51 50 49 48 46 45 43 42 40 39 38 36 36 35 35 35 35 36 36 36 37 37 38 38 39 39 39 40 40 40 41 42 42 43 43 44 44 45 45 45 46 46 45 45 44 42
41 42 43 44 44 44 45 45 45 45 44 43 42 41 40 40 40 41 42 43 44 45 45 45 46 46 47 47 48 49 50 51 52 53 53 54 54 53 53 52 50 49 47 46 44 42 41 39 38 36 35 35 34 34 34 34 34 34 35 35 36 37 37 38 38 38 39 39 40 40 41 42 42 43 43 44 44 45 45 45 45 45 44 43 42 41
44 45 46 46 46 46 46 46 45 44 43 42 42 41 41 42 43 44 44 45 45 46 46 47 47 48 49 50 51 52 52 53 54 55 55 54 54 53 52 51 49 47 45 44 42 40 38 37 36 35 34 34 33 33 33 33 34 34 34 35 36 36 37 37 38 38 39 40 40 41 41 42 43 43 43 44 44 44 44 44 44 43 43 42 40 39
46 47 47 47 46 46 45 44 44 43 43 42 42 42 43 44 45 45 46 46 47 47 48 49 50 50 51 52 53 54 54 55 55 55 55 54 53 52 51 49 47 45 43 42 40 38 37 35 34 34 33 33 33 33 33 33 34 34 34 35 35 36 37 38 38 39 39 40 40 41 42 42 43 43 43 43 43 43 43 43 43 42 41 40 39 37
45 46 46 45 45 44 44 43 43 43 42 42 43 43 44 45 45 46 47 48 48 49 50 51 52 53 53 54 55 55 56 56 55 55 54 53 52 50 48 46 45 43 41 40 38 37 35 34 34 33 33 33 33 34 34 34 34 34 35 35 35 36 37 38 38 39 39 40 40 41 41 42 42 42 42 42 42 41 41 41 41 40 39 38 37 35
43 43 43 43 43 43 43 43 42 42 42 43 43 44 44 45 46 47 48 49 50 51 52 52 53 54 55 56 56 56 56 55 55 54 53 51 49 48 46 44 42 41 39 38 36 35 34 33 33 33 33 33 34 34 34 35 35 35 35 35 36 36 37 37 38 38 39 39 40 40 41 41 41 41 41 41 40 40 40 39 39 39 38 36 35 34
42 42 42 43 43 43 42 42 42 42 42 43 43 44 45 46 47 48 49 50 51 52 53 54 55 55 56 56 56 56 55 55 54 52 51 49 47 45 43 42 40 39 38 36 35 34 33 33 32 32 32 33 33 34 34 35 35 36 36 36 36 36 37 37 37 37 38 38 39 40 40 40 40 40 39 39 39 38 38 38 37 37 36 35 34 33
41 42 42 42 43 43 42 41 41 41 42 43 44 45 46 47 48 49 50 51 52 53 54 55 56 56 56 56 56 55 54 53 52 50 49 47 45 43 42 40 39 38 37 36 35 35 34 34 33 33 33 34 34 35 35 36 36 37 37 37 37 37 37 37 37 37 37 38 38 39 39 39 39 38 38 37 37 37 36 36 36 35 34 34 32 31
41 42 42 42 42 42 42 41 41 41 42 43 44 46 47 49 50 51 52 52 53 54 55 56 56 57 56 56 55 54 53 52 50 48 47 45 44 42 41 40 39 38 38 38 37 37 37 37 37 37 37 37 37 37 38 38 39 39 39 38 38 38 38 37 37 37 37 37 38 38 38 37 37 37 36 36 36 35 35 35 34 34 33 32 31 30
41 41 41 42 42 41 41 41 42 42 43 44 45 47 48 50 51 53 54 54 54 55 56 56 56 57 57 56 54 53 52 50 48 46 45 43 42 41 40 40 39 40 40 40 40 40 40 41 41 41 42 41 41 41 41 41 41 40 40 39 39 38 38 38 37 37 37 37 37 36 36 36 36 35 35 35 35 34 34 33 33 32 32 31 30 29
41 41 41 41 42 42 42 42 43 44 45 46 47 48 49 51 52 54 55 56 56 56 56 57 57 57 56 56 55 53 51 49 47 45 43 42 41 41 41 41 41 41 42 42 43 42 42 43 43 44 45 45 44 43 43 42 41 41 40 39 38 38 37 37 37 37 36 36 36 36 35 35 35 35 35 34 34 33 33 32 32 31 30 30 29 29
40 41 41 42 42 42 43 44 44 45 46 47 49 50 51 52 53 54 55 57 57 57 57 58 57 57 55 54 53 52 50 48 46 44 42 42 41 41 42 42 43 43 44 44 43 42 42 42 44 45 46 46 46 44 43 42 40 39 38 37 36 36 36 36 36 36 36 36 35 35 35 35 35 34 34 33 33 32 31 31 30 30 29 29 28 28
41 41 42 42 43 43 44 45 47 48 48 49 50 52 53 54 55 56 57 57 58 58 58 58 57 56 54 52 51 50 49 48 46 44 43 42 42 43 44 45 45 45 45 45 44 42 42 43 44 46 46 46 45 43 42 40 38 36 35 34 33 34 34 34 35 35 35 35 35 35 35 35 34 34 33 32 32 31 30 29 29 28 28 28 28 27
41 42 43 43 44 45 46 47 48 49 50 51 52 53 54 55 56 57 58 58 58 57 57 56 55 54 52 50 49 48 47 47 46 46 45 44 44 44 45 46 46 46 46 46 45 45 44 44 45 45 45 44 42 40 38 36 34 32 31 31 31 31 32 33 34 34 35 35 35 35 35 34 34 33 32 31 30 29 28 28 27 27 27 27 27 26
42 43 44 45 45 46 47 48 50 51 52 53 54 55 56 57 57 57 57 57 57 56 55 53 52 51 49 48 46 46 45 45 45 46 46 46 46 45 46 47 47 47 47 46 46 45 44 44 43 43 41 40 38 36 34 31 29 28 28 29 29 31 32 33 34 34 35 35 35 35 34 34 33 32 30 29 28 27 27 26 26 26 26 26 26 26
44 45 46 46 47 48 49 50 51 52 53 54 55 56 56 57 57 57 56 56 55 54 52 51 50 50 48 46 44 43 43 43 44 45 47 47 47 46 46 47 48 48 47 46 45 44 43 42 40 39 38 36 35 32 30 28 26 26 27 28 30 31 32 33 34 35 35 35 35 34 34 33 31 30 28 27 26 26 25 25 25 25 25 25 25 25
46 47 48 48 49 50 50 51 52 53 54 55 56 56 56 56 56 56 55 54 52 50 48 47 47 46 46 46 44 42 42 43 44 46 46 47 47 46 46 47 47 47 46 45 44 42 41 39 38 36 35 34 32 30 27 26 25 26 28 29 30 32 33 34 35 35 35 35 34 34 32 31 30 28 27 25 25 24 24 24 24 24 24 24 24 24
48 48 49 49 50 50 51 52 53 54 54 55 56 56 56 55 55 54 53 51 49 47 46 45 44 44 44 44 44 43 42 43 45 46 47 47 47 47 46 46 46 46 45 44 42 40 38 37 35 34 33 32 30 28 26 25 26 27 28 30 31 32 33 34 35 35 34 34 33 32 31 29 28 26 25 24 23 23 23 23 23 23 23 23 23 23
49 49 50 50 51 51 52 52 53 54 55 55 55 55 55 54 53 52 50 48 46 44 43 43 43 43 43 43 43 43 43 43 45 46 47 48 48 47 46 46 45 44 43 42 40 38 36 34 33 32 31 30 28 27 26 26 27 28 29 30 32 33 33 34 34 34 34 33 32 31 29 27 26 24 23 22 22 22 21 21 22 22 22 22 22 22
50 50 50 50 51 52 53 53 53 54 54 54 54 54 53 52 51 49 47 45 44 42 42 41 42 42 43 43 44 44 44 45 46 47 48 48 47 47 45 44 43 42 41 39 37 35 33 32 31 30 29 28 27 26 26 27 27 28 29 30 31 32 33 33 33 33 32 31 30 29 27 25 24 23 22 21 21 20 20 20 20 21 21 21 21 21
50 51 51 51 51 52 53 54 54 53 53 52 52 51 50 49 48 46 44 43 42 41 41 41 42 42 43 44 44 45 45 46 46 47 48 47 47 45 44 42 41 40 39 37 35 33 31 30 29 28 27 26 26 26 27 27 27 28 29 30 31 32 32 32 32 32 31 30 28 26 25 23 22 21 20 20 20 20 20 20 20 20 20 20 21 21
50 51 51 52 52 52 52 53 53 52 51 49 48 47 47 46 45 44 43 42 41 41 41 42 42 43 43 44 44 45 45 45 45 46 46 46 45 43 42 40 38 37 36 35 33 32 30 29 27 26 26 25 26 26 26 26 26 27 28 29 30 31 31 31 31 30 29 28 26 24 23 22 21 20 19 19 19 19 19 19 19 19 20 20 21 21
50 51 51 51 51 51 51 51 51 50 48 46 45 44 44 43 42 42 42 41 41 41 42 42 43 43 44 44 44 44 45 45 44 44 43 43 42 41 39 37 36 35 34 33 32 31 29 28 26 25 25 25 25 25 25 25 25 26 27 28 29 30 30 30 29 28 27 25 24 22 21 20 19 19 19 18 18 18 19 19 19 20 20 20 21 21
50 51 51 50 50 50 49 49 48 47 46 44 43 42 41 41 41 40 40 41 41 42 43 43 44 44 44 43 43 43 43 43 42 41 40 40 39 38 36 35 34 34 33 32 31 30 29 27 25 25 24 24 24 24 23 24 24 25 27 28 28 29 29 28 27 26 24 23 22 21 20 19 19 18 18 18 18 18 18 19 19 20 20 20 20 20
50 50 50 49 49 48 47 46 45 44 43 42 41 41 41 40 40 40 40 41 41 42 43 44 44 44 44 43 42 41 41 40 39 38 37 36 36 35 34 33 33 32 32 31 30 29 28 26 25 24 23 23 23 23 23 24 24 25 26 27 27 27 26 26 24 23 22 21 20 19 19 18 18 18 18 18 18 18 19 19 19 19 19 19 19 18
49 49 48 47 47 46 44 43 42 41 41 40 40 40 40 40 40 40 41 41 42 43 43 43 43 43 43 42 40 39 38 37 36 35 34 33 33 32 32 31 32 32 32 31 30 28 27 26 25 24 23 22 22 22 23 23 24 25 25 25 25 25 24 23 22 21 20 19 19 18 18 18 18 18 18 18 18 18 19 19 19 19 18 18 17 16
48 47 46 45 44 43 42 41 40 40 39 39 39 40 40 40 41 41 42 42 43 43 43 43 42 42 41 39 37 36 35 34 33 32 31 31 31 31 31 30 31 31 31 30 29 28 26 25 24 23 22 22 21 22 22 23 23 24 23 23 23 22 21 20 19 19 18 18 18 18 18 18 18 18 18 18 18 18 18 18 18 18 17 17 16 16
46 45 44 43 42 41 40 39 39 39 38 39 39 40 40 41 41 42 42 43 43 42 41 41 40 39 37 35 34 32 32 31 30 30 30 30 30 30 30 30 30 30 30 30 28 27 25 24 23 23 22 21 21 21 21 21 22 21 21 20 20 19 19 18 18 18 18 17 17 17 17 17 18 18 18 18 18 18 18 18 18 17 17 16 16 15
43 42 41 40 40 39 39 39 39 38 38 39 40 40 41 41 41 42 42 42 42 40 39 37 36 35 33 32 31 29 29 28 28 28 28 29 29 29 29 29 29 30 31 30 29 26 24 22 22 21 21 20 19 19 19 19 19 19 18 18 17 17 17 17 17 17 17 17 17 17 17 18 18 18 18 18 18 18 17 17 17 17 16 15 15 14
41 40 40 39 39 38 38 39 39 39 39 40 40 41 41 41 41 41 41 40 39 37 35 34 32 31 30 29 28 27 27 27 27 28 28 28 29 29 30 29 29 30 31 31 30 28 24 21 20 19 19 18 18 18 18 17 17 16 16 16 15 16 16 16 16 16 17 17 17 17 17 17 17 18 18 17 17 17 16 16 16 15 15 14 13 13
40 40 39 39 39 39 39 39 39 39 40 40 41 41 41 41 41 40 39 37 35 33 31 29 28 27 27 26 26 26 26 27 27 28 28 29 30 30 30 30 30 30 30 30 31 29 26 22 19 17 16 16 16 16 16 16 15 15 15 14 14 15 15 16 16 16 16 16 16 16 16 17 17 17 16 16 16 15 15 15 14 14 14 13 13 13
39 39 38 38 39 39 39 39 40 40 40 40 41 40 40 39 38 37 35 33 31 29 27 26 25 24 24 24 24 24 25 26 27 28 29 30 30 31 30 30 30 29 28 27 28 28 26 23 19 16 15 14 14 14 14 14 14 14 14 14 14 15 15 16 16 16 15 15 15 15 15 15 15 15 15 14 14 13 13 13 13 13 13 14 14 14
38 38 38 38 39 39 39 39 40 40 40 40 39 39 38 37 35 33 31 28 26 25 24 23 22 22 21 21 22 23 24 26 27 29 30 30 31 31 30 30 29 27 26 24 23 23 23 22 19 16 14 13 13 13 13 14 14 14 14 15 15 16 16 16 16 15 15 15 15 15 14 14 14 14 13 13 12 12 12 12 13 14 15 16 16 17
38 38 38 38 39 39 39 39 39 39 39 38 37 36 34 33 30 28 26 24 23 21 21 20 20 19 19 20 21 22 24 26 28 29 30 30 30 30 29 28 27 26 24 22 21 19 19 18 17 16 14 12 12 13 13 13 14 14 15 16 16 16 16 16 16 15 15 15 14 14 14 13 13 13 12 12 12 12 12 13 14 15 17 18 20 21
38 38 38 38 39 39 39 38 38 37 36 35 34 32 30 28 26 24 22 20 19 19 18 18 18 18 19 19 21 22 24 26 28 29 30 30 29 29 28 26 25 24 22 21 20 18 17 16 16 15 14 12 12 12 13 13 14 15 16 16 17 17 17 16 16 15 15 14 14 14 14 13 13 12 12 12 13 13 14 14 15 16 18 20 21 23
38 38 38 38 38 38 37 36 35 34 33 32 30 28 26 24 22 20 19 17 17 16 16 16 16 17 18 20 21 23 25 26 27 28 28 28 27 26 25 24 23 22 21 20 19 18 17 16 15 14 14 13 12 12 12 13 14 15 15 16 16 17 16 16 15 15 14 14 14 14 14 13 13 13 13 14 14 15 15 15 16 17 18 20 21 22
38 38 37 37 36 35 34 33 32 31 30 28 26 24 22 20 18 17 16 15 14 14 14 14 15 16 18 20 22 24 26 26 27 27 26 26 25 23 22 21 20 20 20 19 18 17 16 15 14 13 13 13 13 13 13 13 13 14 15 15 16 16 16 15 14 14 14 14 14 14 14 14 14 14 15 15 16 16 16 17 17 18 19 19 20 20
37 36 35 34 33 32 31 30 29 28 26 24 22 20 19 17 16 15 14 13 12 12 13 13 15 16 18 20 23 25 26 26 26 25 24 23 22 21 20 19 18 18 18 18 18 17 16 15 14 13 13 13 14 14 14 14 14 14 14 15 15 15 15 14 14 14 14 14 15 15 16 16 16 16 17 17 17 17 17 18 18 19 19 19 18 18
35 34 33 32 31 30 29 28 27 25 23 21 19 17 16 14 13 13 12 11 11 11 12 13 14 16 19 21 24 26 27 27 26 24 22 20 19 18 18 17 16 16 16 16 16 16 15 15 15 14 14 14 14 15 15 15 15 14 14 14 14 14 14 14 14 14 15 15 16 16 17 17 18 18 18 18 18 18 19 19 19 19 19 18 18 17
34 32 31 30 29 28 27 26 24 23 21 19 17 15 13 12 11 11 10 10 10 10 11 13 14 16 19 22 24 26 27 27 25 23 21 19 17 17 16 16 15 15 14 14 14 14 14 14 14 14 15 15 15 16 16 16 16 15 14 14 14 14 14 14 15 16 17 17 17 18 18 18 18 19 19 19 19 20 20 20 20 20 20 20 19 19
33 31 30 29 28 27 25 24 22 21 19 17 15 13 11 10 10 9 9 9 10 10 12 13 15 17 19 22 25 27 27 27 25 23 21 19 17 16 16 15 15 14 13 13 13 13 14 14 14 15 15 15 16 16 17 17 16 15 14 14 14 15 15 16 17 18 18 18 19 19 19 19 19 19 20 20 20 20 21 21 21 21 21 21 21 21
32 31 29 28 27 25 24 23 21 19 17 15 12 10 9 9 8 8 8 9 10 11 13 14 16 17 19 21 23 25 26 26 25 23 20 18 17 16 16 15 14 13 13 12 12 13 14 14 15 15 15 15 16 16 17 17 17 16 15 14 15 15 16 17 18 19 19 19 19 19 19 19 20 20 20 20 21 21 21 21 21 21 21 21 21 21
32 30 29 27 26 24 23 21 19 17 15 13 11 9 8 8 8 8 8 9 11 12 14 15 17 18 20 22 23 24 24 23 22 21 19 18 17 17 16 15 14 14 13 12 12 12 13 14 15 16 16 16 16 16 17 17 16 16 16 16 16 17 17 18 19 20 20 20 20 20 20 20 20 20 20 21 21 21 21 21 21 21 21 20 20 20
31 30 28 27 25 24 22 20 17 15 13 11 9 8 7 7 7 8 9 10 12 13 15 16 17 19 21 22 23 23 22 21 19 18 17 17 17 17 16 15 14 13 13 13 12 12 13 14 15 16 16 17 17 17 16 16 16 16 16 17 18 19 19 20 20 20 20 20 20 20 20 20 20 20 20 21 21 21 21 21 20 20 20 20 19 19
31 29 28 26 25 23 20 18 15 12 10 9 8 7 7 7 7 8 10 11 13 14 16 17 19 20 22 22 23 22 21 18 16 15 15 15 16 16 16 15 14 13 13 13 13 13 13 14 14 15 16 17 17 17 17 16 16 16 16 17 18 19 20 20 21 21 21 21 21 21 21 21 21 21 21 21 21 21 21 21 21 20 20 19 19 19
30 29 27 25 24 21 19 15 12 10 8 7 6 6 6 7 7 9 10 12 14 15 16 18 20 21 23 24 23 22 19 17 15 13 13 14 15 15 15 15 14 13 13 13 13 13 14 14 14 15 16 16 17 17 17 17 17 16 17 17 18 18 19 19 20 20 21 21 21 22 22 22 22 22 22 21 21 22 22 21 21 20 20 19 19 18
30 28 26 24 22 20 17 13 10 7 6 5 5 5 6 7 8 9 11 13 14 15 16 18 20 22 23 24 24 22 20 17 14 13 13 14 14 14 14 14 14 14 14 13 13 13 14 14 15 15 15 15 15 15 16 17 17 17 17 17 18 18 18 19 19 19 20 21 22 22 23 23 23 23 23 23 22 22 22 22 21 21 20 19 19 18
29 28 26 24 21 18 14 11 8 5 5 5 5 5 6 7 8 10 12 13 14 15 16 18 20 21 23 24 24 22 20 18 16 14 14 14 13 13 13 13 14 14 15 14 14 14 14 14 14 14 14 14 14 14 15 16 17 17 18 18 18 18 18 18 19 19 20 20 21 22 23 24 25 26 26 25 24 23 22 21 21 20 20 19 18 18
29 27 25 22 19 16 12 8 6 4 4 4 5 5 6 7 9 10 12 14 15 15 17 18 20 22 23 24 23 21 19 17 16 15 14 14 13 12 12 12 12 13 14 14 15 15 14 14 14 14 14 14 14 14 15 15 16 17 17 18 18 18 18 18 19 19 20 21 22 23 24 25 27 28 29 28 27 25 24 22 21 20 19 18 18 17
28 26 24 21 18 13 9 6 4 3 3 4 4 5 6 8 9 11 13 14 14 16 17 19 21 22 23 24 23 21 19 17 15 14 14 13 13 12 11 11 11 11 12 13 14 15 15 15 14 14 14 14 15 15 15 15 15 16 17 17 18 18 18 18 19 20 21 21 22 24 25 26 28 30 31 31 30 28 26 24 22 20 19 18 17 16
27 25 23 20 16 11 8 5 3 3 3 4 4 5 6 7 9 11 13 13 14 16 17 19 21 23 24 24 23 21 18 16 15 14 14 13 12 12 11 11 11 11 11 11 12 13 14 15 15 15 15 15 15 15 15 15 15 16 17 17 18 18 18 19 19 20 21 22 23 25 26 28 29 31 32 32 32 31 29 26 23 21 20 18 17 16
Wind_Direction
298 297 297 297 297 299 300 301 301 302 302 302 301 300 297 295 295 295 296 297 297 298 299 300 301 301 302 302 302 302 302 303 303 305 306 308 309 311 312 313 313 313 313 313 313 312 311 311 310 310 309 309 308 307 306 305 303 302 301 300 299 298 297 297 297 296 296 296 296 296 296 296 296 296 297 297 298 299 299 299 299 299 298 298 298 297
295 295 296 297 298 300 301 301 302 302 302 301 300 298 297 296 296 296 297 298 299 299 300 301 301 302 302 302 302 303 304 305 307 309 310 311 313 314 314 315 315 315 315 315 314 314 313 313 312 311 311 310 309 308 307 306 304 303 301 300 299 299 298 297 297 297 297 297 296 296 296 296 297 297 298 299 299 299 299 299 298 298 298 298 297 297
294 295 296 297 298 300 301 301 302 302 301 300 299 298 298 298 298 299 299 300 300 301 302 302 302 302 302 303 305 306 308 310 311 312 314 315 315 316 317 317 317 317 316 316 315 315 314 314 314 313 313 312 311 310 308 307 305 304 302 301 300 299 299 298 298 297 297 297 297 297 297 297 298 298 299 300 300 300 299 298 298 297 297 297 296 296
293 294 295 296 298 299 300 301 301 301 300 300 299 299 299 300 300 301 301 302 302 302 302 303 303 304 305 307 308 310 312 313 315 315 316 317 318 318 318 318 318 318 317 317 316 316 315 315 315 315 314 314 313 311 310 308 307 305 304 303 302 301 300 300 299 299 298 298 298 298 298 298 299 299 300 300 300 299 298 297 297 296 296 296 296 295
293 294 296 297 298 299 300 300 300 300 300 300 300 300 300 301 301 302 302 302 303 303 304 305 306 308 309 311 313 314 315 316 317 318 318 319 319 319 319 319 318 317 317 316 316 315 315 315 316 316 316 316 315 314 312 310 309 307 306 305 304 303 302 301 301 300 299 299 299 299 299 299 300 300 300 300 299 298 297 297 296 296 296 296 295 294
295 296 297 298 299 299 299 299 300 300 300 300 300 300 301 302 302 303 303 304 304 305 306 308 310 311 313 315 316 317 318 318 319 319 319 320 320 319 319 318 317 316 316 315 315 314 314 314 315 316 317 317 316 315 314 312 310 308 307 306 305 304 303 303 302 301 300 299 299 299 299 299 299 299 299 299 298 297 297 296 296 296 296 295 294 293
297 298 298 298 298 299 299 300 300 301 301 301 301 301 302 302 303 303 304 305 306 308 309 311 313 314 316 317 318 319 319 319 319 320 320 319 319 318 317 316 315 314 314 313 313 312 311 312 313 314 315 316 316 315 313 312 310 308 306 305 304 304 303 303 302 301 300 299 299 299 299 299 299 299 298 298 298 297 297 297 296 296 295 295 294 293
298 298 298 298 299 299 300 301 301 302 302 302 302 303 303 303 303 304 305 306 308 310 312 314 315 316 317 318 319 319 319 319 319 319 319 318 317 316 315 314 313 312 312 312 311 310 309 309 310 311 312 313 313 313 312 310 308 306 305 303 303 303 303 302 301 301 300 300 299 299 299 299 299 299 298 298 298 298 297 297 296 296 295 295 294 293
298 298 298 298 299 300 301 302 302 302 302 303 304 304 304 305 305 305 306 308 310 312 314 316 316 317 317 318 318 319 319 319 319 318 318 317 315 314 313 312 312 312 312 312 311 311 310 310 310 311 311 311 312 312 311 310 308 306 304 302 301 301 301 301 301 301 301 300 300 300 300 300 300 300 300 300 300 299 298 297 296 296 295 294 294 293
298 299 299 300 301 301 302 302 302 303 303 304 305 305 306 307 308 309 310 311 312 314 315 316 316 317 317 317 318 318 318 317 317 317 317 316 314 313 313 313 313 314 314 314 314 314 314 313 313 313 312 312 312 312 311 310 308 306 303 302 301 300 300 300 301 301 301 301 301 301 301 301 301 301 302 301 301 300 299 298 297 296 295 295 294 294
300 300 301 301 302 302 302 302 303 304 304 305 306 307 308 310 311 312 312 313 313 314 315 316 316 317 317 317 317 317 317 316 316 316 316 315 314 314 314 315 316 317 317 317 317 316 316 314 313 312 311 311 311 311 310 309 307 305 303 301 300 299 299 300 300 301 302 302 303 303 303 303 303 303 303 303 302 301 299 298 297 296 295 295 295 294
301 302 302 302 302 302 303 303 304 305 306 308 309 310 311 312 313 314 314 314 315 316 316 317 317 317 317 317 317 316 316 315 316 316 316 316 316 316 317 318 319 319 319 318 317 315 313 310 308 307 308 308 309 309 308 307 305 303 301 300 299 299 299 299 300 301 302 303 304 304 305 305 305 305 304 303 302 301 299 298 297 296 295 294 294 294
303 303 303 303 303 304 305 306 307 309 310 311 312 313 313 313 314 314 315 315 316 317 318 318 317 317 317 317 316 315 315 316 316 317 318 318 318 319 319 319 319 319 318 317 314 311 308 305 303 303 305 306 307 307 306 305 304 302 300 299 298 298 299 300 301 302 303 304 305 305 306 306 306 306 305 303 302 300 299 297 296 294 294 293 293 293
304 304 304 304 305 306 308 309 311 312 312 313 313 314 314 314 315 315 316 317 317 317 318 317 317 316 315 315 315 315 316 317 318 318 318 318 318 319 318 317 317 316 315 314 311 309 306 304 303 304 304 305 306 306 305 304 303 302 301 300 300 300 300 301 302 304 304 305 306 307 307 307 307 306 305 304 302 300 298 296 295 294 293 293 294 294
305 305 306 307 308 310 311 312 313 313 314 314 314 314 314 315 316 316 316 316 317 317 317 316 315 315 314 314 315 316 317 317 316 316 316 316 316 316 316 314 313 312 312 311 309 308 307 306 305 305 305 306 306 305 305 304 304 303 303 302 302 302 303 304 304 305 306 307 307 308 308 308 308 307 306 304 302 299 297 296 295 294 294 295 295 295
307 308 309 311 312 313 314 314 314 314 314 314 315 315 315 315 315 316 315 315 315 315 315 314 314 314 314 315 316 316 316 315 312 311 312 312 313 313 312 311 310 310 309 309 308 307 307 306 305 305 306 306 306 306 306 306 306 306 305 305 305 305 305 305 306 306 307 308 308 309 310 309 309 308 306 304 301 299 298 296 296 295 295 295 296 297
310 312 313 314 315 315 315 315 315 314 314 314 314 314 314 314 314 314 314 314 314 314 314 313 313 314 315 315 315 315 315 313 311 310 310 311 311 311 310 309 308 308 308 308 307 307 307 307 306 306 307 307 307 307 307 308 308 308 307 307 306 306 306 306 306 307 307 309 310 310 311 310 309 308 306 304 302 300 298 297 297 296 296 297 298 298
314 315 316 316 316 315 315 314 314 314 313 313 313 313 313 313 313 313 313 313 314 314 313 313 313 314 315 315 315 315 315 312 310 310 310 310 310 311 310 309 308 308 308 308 308 308 308 308 308 308 308 308 308 309 309 310 309 308 308 307 306 306 306 306 306 307 308 310 311 312 312 311 310 309 307 305 302 301 300 299 298 298 299 299 300 300
316 316 316 316 315 314 313 313 312 312 312 312 312 312 312 312 312 312 312 313 313 314 313 313 313 314 314 314 315 315 314 312 310 309 309 310 310 311 311 310 309 309 309 309 310 310 310 309 309 309 310 310 311 311 311 310 309 308 307 306 306 305 305 305 306 308 309 311 312 313 312 312 311 310 308 306 304 303 302 302 301 301 302 302 302 302
316 316 315 314 313 313 312 311 311 311 311 311 311 311 311 311 312 312 312 313 314 314 314 313 313 313 314 314 314 314 313 311 310 309 310 310 311 311 312 311 311 310 310 310 311 311 310 310 310 311 312 313 314 314 313 311 309 308 307 306 305 305 305 306 307 309 311 313 314 314 314 313 312 311 310 308 307 307 306 306 306 305 305 305 304 303
315 315 314 313 312 311 311 310 310 310 310 311 311 311 311 311 312 312 313 313 314 314 314 313 313 314 314 314 314 313 313 311 310 310 310 311 311 312 312 312 311 311 311 311 311 311 310 310 311 313 315 317 317 316 314 312 310 308 307 305 304 305 305 307 309 312 313 315 316 316 316 315 314 314 312 312 312 311 311 310 309 309 308 307 306 305
314 313 312 311 310 310 309 309 310 310 310 310 310 311 311 311 312 313 313 314 314 314 314 313 314 314 314 314 314 313 312 311 311 311 311 311 312 313 313 313 312 311 311 311 311 311 311 312 314 316 319 320 320 318 316 313 311 309 306 305 304 305 307 309 312 314 315 317 317 318 317 317 317 317 317 316 316 315 314 313 312 311 310 309 309 309
311 311 310 309 309 309 309 309 309 310 310 310 310 310 311 311 312 313 314 314 314 314 313 313 313 314 314 314 313 313 312 311 311 311 311 312 312 313 314 313 312 311 311 311 312 312 313 314 317 320 322 322 321 319 316 314 311 308 306 305 305 307 309 312 314 316 317 318 319 320 320 321 321 321 321 320 320 318 317 315 314 313 312 312 312 313
309 309 309 309 309 309 309 309 310 310 311 311 311 311 311 311 312 313 314 314 313 313 313 313 313 314 314 313 313 312 311 311 311 312 312 312 313 314 314 314 313 312 312 313 314 315 316 318 321 323 324 323 321 318 315 312 309 307 306 306 307 309 312 314 316 318 320 321 322 323 324 325 325 325 324 323 321 319 318 316 315 315 315 316 317 318
309 309 309 309 309 309 310 310 310 311 311 311 311 311 311 311 312 313 313 313 312 312 312 313 313 313 313 313 312 312 311 312 312 313 313 314 314 315 315 315 314 314 314 316 317 319 320 322 324 325 324 322 319 316 313 310 308 306 306 308 310 312 314 317 319 321 322 324 325 327 328 328 328 328 326 324 322 320 319 319 319 319 321 322 324 325
309 309 309 310 310 310 310 311 311 311 311 311 311 311 311 311 312 312 312 312 312 312 312 313 313 313 313 313 313 313 313 314 315 315 316 316 317 317 318 317 317 317 318 320 321 323 324 325 326 326 324 321 318 315 312 309 307 307 309 311 313 316 318 320 322 324 326 328 329 331 331 331 330 328 326 324 323 322 322 323 324 325 328 330 332 332
310 310 310 311 311 311 311 311 311 311 311 311 311 310 311 311 312 312 311 311 312 312 313 313 314 314 314 315 315 316 317 317 318 319 319 320 321 321 321 322 321 322 322 324 325 326 327 327 327 326 324 321 318 314 311 309 309 310 313 315 318 320 321 323 326 328 330 332 334 334 334 333 331 329 327 326 325 326 327 328 330 332 334 337 339 340
311 311 311 311 311 311 311 311 311 311 311 310 310 310 311 311 312 312 312 312 313 313 314 314 315 315 316 317 318 320 320 321 322 323 323 324 324 325 326 326 326 326 326 326 327 328 329 329 329 327 325 322 319 315 313 312 313 316 319 321 323 324 325 327 330 333 335 337 338 337 335 333 331 329 328 328 329 330 332 333 335 337 340 342 343 345
311 311 311 312 312 311 311 311 311 311 311 311 311 311 311 312 312 312 312 313 314 315 316 316 317 317 319 320 322 323 324 325 326 326 327 328 328 328 329 329 329 328 328 327 328 330 332 333 333 331 328 325 322 319 317 318 320 323 325 326 327 327 329 333 336 339 341 341 340 338 335 333 331 330 330 331 332 334 336 338 339 341 344 345 346 347
313 313 313 313 313 312 312 312 312 312 312 312 311 311 311 312 312 313 313 314 316 316 317 318 319 320 322 324 326 327 328 329 329 329 330 331 330 330 331 331 330 329 328 328 329 331 336 340 341 338 334 330 326 324 324 326 329 331 332 332 332 333 336 339 343 345 345 343 340 337 334 332 330 331 332 334 336 338 340 341 342 344 346 347 347 347
315 315 315 315 314 314 313 313 313 313 312 312 311 311 312 312 313 314 315 316 317 318 319 320 321 323 325 328 330 331 332 332 332 332 333 332 331 331 331 330 330 329 329 329 329 332 337 344 349 348 342 337 333 331 332 334 337 338 338 338 338 340 344 347 349 349 347 343 339 335 332 331 332 334 337 339 342 343 344 344 344 346 347 347 346 345
317 317 317 316 315 314 314 313 313 312 312 311 311 312 312 313 314 315 316 318 319 320 321 323 325 327 330 332 334 335 335 335 334 334 334 333 332 331 331 330 330 331 331 331 332 333 337 344 351 355 351 345 340 339 341 342 343 343 343 344 346 349 352 354 353 352 348 343 339 335 334 336 338 342 345 347 349 350 349 347 347 346 346 344 342 339
318 318 317 316 315 314 313 313 312 312 311 311 312 312 313 314 316 317 318 319 321 322 324 326 329 331 334 336 337 338 338 337 336 335 334 333 332 331 332 332 332 333 334 335 336 338 340 345 351 357 359 354 350 348 349 349 349 348 349 350 353 356 358 358 357 354 350 345 342 341 343 346 350 353 356 358 359 358 355 351 348 345 341 337 334 331
318 317 316 315 314 313 313 312 312 312 312 312 313 314 315 316 318 319 320 322 323 325 327 330 334 336 338 339 340 341 341 339 337 336 334 332 331 332 333 334 335 337 339 342 344 346 349 351 355 359 3 2 358 354 355 354 353 352 353 355 357 360 2 3 1 358 354 351 350 352 355 359 2 4 6 7 6 3 359 354 347 341 335 330 326 323
317 316 316 315 314 314 314 313 313 313 313 314 315 316 317 319 320 322 323 325 327 329 332 336 339 341 342 342 343 343 343 340 338 335 333 332 332 333 334 337 339 341 344 347 350 354 357 0 1 2 4 6 4 2 0 359 358 357 357 359 1 3 5 6 5 3 360 358 360 2 6 8 8 8 7 5 3 360 356 351 343 335 329 324 322 320
317 317 316 316 316 316 315 315 315 315 316 316 318 319 321 322 323 325 326 329 332 335 339 342 344 345 345 345 345 344 343 341 338 335 333 332 333 335 337 341 344 346 348 351 355 359 2 5 7 6 4 5 7 9 8 6 3 1 0 2 4 7 10 10 9 7 5 4 5 7 9 9 7 4 1 357 355 353 349 344 337 330 326 323 322 321
319 319 319 319 319 318 318 318 318 318 319 320 321 322 324 325 326 328 330 333 338 342 346 347 347 347 347 347 347 345 343 340 338 335 333 333 334 337 341 345 348 351 352 354 357 0 4 7 10 10 8 6 7 10 13 14 12 8 6 6 9 12 15 15 12 9 7 6 6 6 5 4 1 358 355 352 350 348 344 338 334 330 328 327 326 325
322 322 322 322 322 321 321 321 321 321 322 323 324 325 327 328 329 330 334 339 344 347 349 348 347 347 348 348 347 345 343 340 338 337 336 336 338 342 346 351 354 355 355 355 356 359 2 6 9 12 12 10 8 10 13 16 18 18 17 16 16 17 17 16 12 9 7 6 4 3 1 359 357 355 353 351 349 346 343 338 335 334 333 333 332 331
326 327 327 326 326 325 324 324 324 324 325 325 326 327 329 330 331 333 338 343 348 349 349 347 346 347 348 348 347 345 343 341 340 340 340 341 344 348 352 356 359 359 358 356 356 358 1 5 8 11 13 12 11 12 14 18 22 26 29 27 24 20 17 14 10 7 5 4 3 2 1 359 357 356 354 352 349 347 344 341 339 338 337 336 335 333
331 331 331 330 329 328 327 326 326 326 326 326 327 329 330 332 334 337 341 345 347 347 346 345 346 348 349 349 348 346 344 343 342 343 345 348 352 356 359 1 3 3 2 359 357 358 1 5 9 11 12 12 12 13 15 18 24 30 34 33 29 23 16 12 9 7 5 4 4 4 3 1 360 357 355 353 350 348 345 344 342 340 338 337 336 334
334 334 333 332 331 330 328 327 326 326 325 326 327 328 330 332 336 339 341 343 343 342 342 343 346 349 350 350 350 349 347 345 345 346 348 353 358 3 5 6 7 7 6 4 2 1 3 6 10 12 13 14 15 15 17 19 23 26 28 28 25 20 14 10 8 7 6 6 6 6 5 4 1 358 355 352 350 347 345 343 342 340 338 337 335 334
336 336 335 333 332 330 329 327 326 325 325 325 325 326 328 332 337 339 339 340 340 340 341 343 347 349 350 351 351 351 350 348 347 347 350 355 1 6 9 9 9 9 10 10 8 6 6 7 10 12 14 16 17 18 19 21 22 22 21 20 20 17 14 10 8 7 7 7 8 8 7 5 1 358 354 351 348 346 344 343 341 340 338 337 335 333
337 337 336 334 332 331 329 328 326 325 325 325 324 325 330 336 339 340 339 340 341 341 342 345 347 350 351 353 353 354 353 351 349 348 351 356 1 6 9 10 10 11 12 14 14 12 9 9 10 12 14 17 18 19 20 21 21 19 16 14 13 13 11 10 9 8 8 7 8 7 6 4 1 357 354 350 348 345 344 343 341 340 338 337 335 333
338 337 336 335 333 332 330 329 328 327 327 325 324 326 333 339 341 342 342 342 342 342 344 346 348 350 352 354 355 356 356 354 352 351 353 358 2 5 8 10 11 12 12 14 16 16 14 12 11 12 14 15 17 18 20 20 19 16 13 11 10 9 8 8 8 8 8 8 8 7 5 3 1 358 355 351 349 347 346 345 343 341 339 336 334 332
339 338 337 335 334 332 331 330 329 328 327 325 325 329 336 340 342 343 344 344 344 344 345 348 349 351 353 355 357 358 358 358 357 357 359 2 4 6 7 9 11 13 14 15 16 16 16 15 14 14 14 13 13 13 15 16 16 14 11 9 8 8 8 8 8 7 7 7 7 6 5 3 1 359 357 354 352 350 348 346 345 343 340 337 334 332
339 339 337 336 334 333 331 330 329 328 325 323 326 332 338 342 343 344 344 344 344 345 347 349 351 352 354 355 357 359 0 3 5 7 8 8 8 7 7 9 11 14 16 16 17 17 17 16 16 16 15 12 10 10 11 12 12 11 10 9 9 9 9 9 9 9 8 7 7 6 6 5 3 2 0 358 356 353 351 349 346 344 342 339 336 335
340 340 339 337 335 334 332 332 331 329 323 321 325 332 340 343 346 346 345 342 343 345 348 351 353 354 355 357 358 360 2 6 10 14 16 15 13 11 9 9 11 13 15 17 18 19 19 18 17 16 15 13 10 9 9 9 10 10 11 12 12 13 14 13 12 12 10 9 7 7 7 6 6 5 4 3 0 357 354 351 349 347 344 341 339 338
341 341 340 338 336 335 334 334 334 331 322 319 325 334 341 346 348 348 345 341 342 345 349 353 355 356 357 359 0 2 4 7 12 16 19 19 18 16 14 12 11 12 12 13 16 18 20 19 17 16 15 14 12 11 9 9 9 11 13 16 18 19 19 18 16 15 13 11 9 8 7 6 6 6 7 6 4 2 359 355 353 350 347 345 343 342
342 341 340 339 337 335 335 336 337 332 319 317 324 335 344 346 347 345 342 340 342 347 352 355 357 358 359 0 2 4 6 9 13 16 19 21 21 21 19 18 16 13 10 9 10 13 17 20 20 17 15 14 14 13 13 12 12 15 19 22 24 25 24 22 20 18 16 14 12 10 8 6 6 6 7 6 6 4 2 360 357 355 352 349 347 347
342 342 341 339 337 335 335 338 338 328 313 312 322 335 343 345 343 339 338 340 345 350 354 356 357 358 360 1 3 5 7 11 14 18 20 23 24 25 25 25 23 20 16 11 9 10 12 17 20 20 18 17 16 16 18 18 20 23 26 29 31 30 28 25 22 20 18 16 14 12 10 8 7 7 7 6 6 5 5 4 2 360 358 355 353 353
343 342 341 339 336 335 336 338 333 313 300 303 313 327 337 341 340 337 337 342 348 353 356 357 358 359 0 2 3 5 7 10 15 19 22 24 26 27 28 29 29 28 24 21 17 15 15 16 17 18 18 18 19 21 24 28 31 33 34 36 36 34 31 28 25 22 19 16 14 12 11 10 9 8 7 6 6 6 6 6 6 5 3 1 360 359
Height
3048 3046 3044 3042 3040 3039 3038 3037 3035 3033 3032 3031 3030 3028 3027 3025 3024 3023 3021 3020 3018 3017 3015 3013 3012 3011 3009 3007 3006 3004 3002 3000 2998 2995 2993 2991 2988 2986 2984 2982 2979 2977 2975 2973 2971 2969 2968 2966 2964 2963 2961 2960 2958 2957 2956 2954 2953 2952 2950 2948 2947 2946 2944 2943 2942 2941 2939 2938 2937 2936 2935 2933 2932 2931 2930 2928 2927 2926 2924 2923 2921 2920 2919 2918 2917 2916
3045 3043 3041 3040 3038 3037 3035 3034 3033 3031 3029 3028 3027 3026 3024 3022 3021 3020 3019 3017 3015 3013 3012 3010 3008 3007 3006 3004 3002 3000 2997 2995 2993 2990 2988 2986 2983 2981 2979 2977 2975 2973 2971 2969 2967 2966 2964 2962 2961 2960 2958 2957 2955 2954 2953 2951 2950 2948 2947 2946 2944 2943 2942 2940 2939 2938 2937 2935 2934 2933 2932 2930 2929 2928 2926 2925 2924 2922 2921 2919 2918 2917 2916 2915 2914 2913
3042 3040 3039 3037 3036 3034 3033 3032 3030 3028 3027 3025 3024 3022 3021 3020 3018 3017 3015 3013 3012 3010 3009 3007 3005 3003 3001 2999 2997 2995 2992 2990 2988 2985 2983 2981 2979 2977 2975 2973 2971 2969 2967 2965 2964 2962 2961 2959 2958 2957 2955 2954 2952 2951 2950 2948 2947 2946 2944 2943 2942 2940 2939 2937 2936 2935 2933 2932 2931 2930 2928 2927 2926 2925 2923 2922 2920 2919 2917 2916 2915 2913 2912 2912 2911 2910
3040 3038 3036 3035 3033 3032 3031 3029 3027 3026 3024 3022 3021 3019 3018 3017 3015 3013 3012 3010 3008 3006 3005 3003 3001 2999 2996 2994 2992 2990 2987 2985 2983 2981 2979 2977 2975 2973 2971 2969 2967 2965 2964 2962 2961 2959 2958 2957 2955 2954 2952 2951 2950 2948 2947 2946 2944 2943 2942 2940 2939 2937 2936 2935 2933 2932 2930 2929 2928 2927 2925 2924 2923 2921 2920 2918 2917 2916 2914 2912 2912 2910 2909 2908 2908 2907
3037 3035 3033 3032 3031 3029 3028 3027 3025 3023 3021 3020 3018 3017 3015 3013 3012 3010 3008 3006 3004 3002 3000 2998 2996 2994 2992 2989 2987 2985 2983 2981 2979 2977 2975 2973 2971 2969 2967 2966 2964 2962 2961 2959 2958 2956 2955 2954 2952 2951 2950 2949 2947 2946 2945 2943 2942 2940 2939 2937 2936 2935 2933 2932 2930 2929 2927 2926 2925 2924 2922 2921 2920 2918 2917 2915 2914 2912 2911 2909 2908 2907 2906 2906 2905 2904
3034 3032 3031 3029 3028 3027 3025 3023 3022 3020 3018 3017 3015 3014 3012 3010 3008 3006 3004 3002 3001 2998 2996 2994 2992 2990 2987 2985 2983 2981 2979 2977 2975 2973 2971 2969 2968 2966 2964 2963 2961 2960 2958 2957 2955 2954 2953 2952 2950 2949 2947 2946 2945 2943 2942 2941 2939 2937 2936 2935 2933 2932 2930 2929 2927 2926 2925 2923 2922 2921 2920 2918 2917 2915 2914 2912 2911 2909 2908 2907 2905 2904 2904 2903 2902 2901
3031 3030 3028 3027 3025 3024 3022 3021 3019 3017 3015 3013 3012 3011 3009 3007 3005 3003 3001 2999 2997 2995 2992 2990 2988 2986 2984 2982 2979 2977 2975 2973 2972 2970 2968 2967 2965 2963 2962 2960 2959 2957 2956 2955 2953 2952 2951 2950 2948 2947 2946 2944 2943 2942 2940 2938 2937 2935 2934 2932 2930 2929 2927 2926 2925 2923 2922 2921 2919 2918 2917 2916 2914 2912 2911 2909 2908 2906 2905 2903 2902 2902 2901 2899 2898 2898
3028 3027 3026 3024 3022 3021 3019 3018 3017 3015 3012 3010 3008 3007 3005 3003 3002 3000 2998 2996 2993 2991 2989 2986 2984 2982 2981 2979 2977 2974 2972 2970 2969 2967 2965 2964 2962 2961 2960 2958 2957 2955 2954 2953 2951 2950 2949 2947 2946 2945 2944 2942 2941 2939 2938 2936 2934 2933 2931 2929 2928 2926 2925 2923 2922 2921 2919 2918 2917 2916 2914 2913 2911 2910 2908 2906 2905 2903 2902 2900 2899 2898 2897 2897 2896 2895
3026 3024 3022 3021 3020 3018 3016 3015 3014 3013 3011 3008 3006 3004 3002 2999 2997 2996 2994 2992 2990 2988 2985 2983 2981 2978 2977 2975 2974 2972 2969 2967 2966 2964 2963 2961 2960 2958 2957 2955 2954 2953 2951 2950 2948 2947 2946 2944 2943 2942 2941 2939 2938 2937 2935 2933 2932 2930 2928 2926 2925 2923 2922 2920 2919 2918 2917 2915 2914 2913 2911 2910 2908 2907 2905 2903 2902 2900 2899 2898 2897 2896 2895 2894 2893 2893
3023 3022 3020 3018 3017 3016 3014 3012 3011 3009 3008 3006 3003 3001 2999 2996 2993 2991 2989 2987 2987 2985 2982 2980 2978 2976 2973 2971 2970 2968 2967 2965 2963 2962 2961 2959 2957 2955 2954 2952 2951 2949 2948 2946 2945 2943 2942 2940 2939 2938 2937 2935 2934 2933 2932 2930 2928 2926 2924 2923 2921 2920 2918 2917 2916 2915 2914 2912 2911 2910 2908 2907 2905 2904 2902 2900 2899 2897 2896 2895 2894 2892 2892 2891 2891 2890
3020 3019 3017 3016 3014 3013 3011 3010 3008 3007 3005 3002 3000 2997 2995 2993 2990 2987 2985 2983 2982 2981 2979 2977 2974 2972 2970 2967 2966 2964 2963 2962 2960 2959 2958 2956 2954 2952 2950 2949 2947 2946 2944 2942 2940 2939 2937 2937 2935 2934 2933 2932 2931 2929 2928 2926 2925 2923 2921 2919 2918 2917 2915 2914 2913 2912 2911 2909 2908 2907 2905 2904 2902 2901 2899 2897 2896 2895 2893 2892 2891 2890 2889 2888 2888 2887
3018 3016 3014 3013 3012 3010 3008 3007 3005 3003 3001 2999 2996 2993 2991 2989 2987 2985 2982 2979 2978 2976 2974 2972 2970 2968 2967 2965 2962 2960 2959 2957 2957 2956 2954 2952 2950 2948 2947 2945 2943 2942 2940 2938 2937 2936 2935 2934 2932 2931 2929 2928 2927 2926 2924 2923 2921 2919 2918 2916 2915 2913 2912 2911 2910 2909 2907 2907 2905 2904 2902 2901 2899 2898 2897 2895 2893 2892 2891 2890 2888 2887 2887 2886 2885 2885
3015 3013 3012 3010 3009 3007 3005 3003 3001 2999 2997 2995 2992 2990 2987 2985 2983 2981 2978 2976 2973 2972 2970 2968 2966 2964 2963 2962 2959 2957 2955 2953 2952 2951 2950 2948 2946 2945 2942 2941 2939 2938 2937 2935 2934 2933 2932 2931 2929 2928 2926 2925 2923 2922 2921 2919 2917 2916 2915 2913 2912 2910 2909 2908 2907 2906 2905 2903 2902 2901 2899 2898 2897 2895 2894 2892 2891 2889 2888 2887 2886 2885 2884 2884 2883 2882
3012 3011 3009 3007 3006 3004 3002 2999 2997 2995 2992 2991 2988 2986 2984 2981 2979 2977 2975 2972 2970 2968 2967 2965 2963 2962 2960 2959 2957 2954 2952 2950 2948 2947 2946 2945 2943 2942 2940 2938 2937 2936 2934 2933 2932 2930 2929 2928 2926 2924 2923 2922 2920 2919 2917 2916 2914 2913 2912 2910 2909 2907 2906 2905 2904 2903 2902 2901 2899 2898 2897 2895 2894 2892 2891 2889 2888 2887 2886 2885 2884 2883 2882 2881 2881 2880
3010 3008 3006 3004 3002 3001 2998 2996 2993 2991 2989 2987 2985 2982 2980 2977 2975 2973 2971 2969 2967 2965 2964 2962 2960 2958 2957 2956 2954 2952 2950 2947 2946 2944 2943 2941 2941 2940 2938 2936 2934 2933 2932 2931 2929 2927 2926 2925 2923 2921 2920 2918 2917 2916 2914 2913 2911 2910 2909 2907 2906 2905 2903 2902 2901 2900 2899 2897 2897 2895 2894 2892 2891 2890 2888 2887 2886 2885 2883 2882 2881 2881 2880 2879 2878 2878
3007 3005 3003 3001 2999 2997 2995 2992 2990 2988 2985 2983 2981 2979 2977 2974 2972 2970 2968 2966 2964 2962 2961 2959 2957 2955 2953 2952 2951 2950 2948 2946 2943 2942 2940 2939 2938 2937 2937 2934 2932 2930 2929 2928 2926 2924 2923 2922 2920 2918 2917 2915 2914 2912 2911 2910 2909 2907 2906 2905 2903 2902 2901 2899 2898 2897 2896 2895 2894 2892 2891 2890 2888 2887 2886 2885 2883 2882 2882 2880 2879 2878 2878 2877 2877 2876
3004 3002 2999 2997 2995 2993 2991 2989 2987 2985 2982 2980 2978 2976 2974 2972 2970 2967 2966 2963 2962 2960 2958 2956 2954 2952 2950 2949 2948 2947 2947 2944 2941 2939 2938 2936 2935 2935 2934 2932 2929 2927 2926 2925 2923 2922 2920 2918 2917 2915 2914 2912 2911 2910 2908 2907 2906 2905 2903 2902 2901 2899 2898 2897 2896 2894 2893 2892 2891 2890 2888 2887 2886 2885 2883 2882 2881 2880 2879 2878 2877 2876 2876 2875 2874 2874
3001 2998 2996 2993 2991 2989 2988 2986 2984 2982 2979 2977 2975 2973 2971 2969 2967 2965 2963 2961 2959 2957 2955 2953 2952 2950 2949 2947 2945 2944 2944 2942 2938 2936 2935 2933 2932 2932 2931 2928 2926 2924 2922 2921 2920 2918 2917 2915 2913 2912 2911 2910 2908 2907 2906 2905 2904 2902 2901 2900 2898 2897 2895 2894 2893 2892 2891 2890 2888 2887 2886 2885 2883 2882 2881 2880 2879 2878 2877 2876 2875 2875 2874 2873 2873 2872
2997 2995 2993 2990 2988 2986 2985 2983 2981 2979 2976 2974 2972 2970 2967 2966 2964 2962 2960 2958 2957 2955 2953 2952 2950 2948 2947 2945 2943 2942 2942 2939 2936 2933 2932 2930 2929 2928 2927 2925 2923 2921 2919 2918 2917 2915 2913 2912 2911 2910 2908 2907 2906 2905 2904 2902 2901 2900 2898 2897 2896 2894 2893 2892 2891 2890 2888 2887 2886 2885 2884 2882 2881 2880 2879 2878 2877 2876 2875 2874 2874 2873 2872 2871 2870 2870
2994 2992 2990 2988 2986 2983 2981 2979 2978 2976 2973 2971 2968 2966 2964 2962 2961 2959 2958 2956 2954 2952 2951 2950 2948 2946 2944 2942 2941 2939 2938 2936 2933 2931 2929 2927 2926 2925 2924 2922 2920 2917 2916 2915 2914 2912 2911 2910 2908 2907 2906 2905 2904 2903 2902 2900 2899 2898 2896 2895 2893 2892 2891 2889 2888 2887 2886 2885 2884 2883 2882 2880 2879 2878 2877 2876 2875 2874 2873 2872 2872 2871 2870 2869 2868 2867
2991 2989 2987 2985 2983 2981 2978 2976 2974 2972 2970 2968 2966 2963 2961 2959 2957 2956 2955 2954 2952 2950 2948 2947 2946 2944 2942 2940 2938 2936 2935 2932 2930 2927 2926 2924 2923 2922 2921 2919 2917 2914 2913 2912 2911 2910 2909 2907 2906 2905 2904 2903 2902 2901 2900 2898 2897 2895 2894 2892 2891 2889 2888 2887 2886 2885 2884 2883 2882 2881 2879 2878 2877 2876 2875 2874 2873 2872 2872 2871 2870 2869 2868 2867 2866 2865
2988 2986 2984 2982 2981 2978 2976 2973 2971 2969 2968 2966 2963 2961 2959 2957 2955 2953 2952 2951 2949 2948 2946 2945 2943 2942 2940 2938 2936 2934 2932 2930 2927 2925 2923 2921 2919 2919 2918 2916 2914 2912 2910 2909 2908 2907 2907 2905 2904 2903 2902 2902 2900 2899 2897 2896 2895 2893 2892 2890 2889 2887 2886 2885 2884 2883 2882 2881 2880 2879 2877 2877 2876 2875 2874 2873 2872 2871 2870 2869 2868 2867 2866 2865 2864 2864
2986 2984 2982 2980 2977 2975 2973 2971 2968 2967 2965 2963 2961 2958 2956 2955 2953 2951 2950 2948 2947 2945 2944 2942 2941 2939 2938 2936 2934 2932 2929 2927 2925 2923 2921 2919 2917 2916 2915 2913 2911 2909 2908 2907 2906 2905 2904 2903 2903 2902 2901 2900 2898 2897 2896 2894 2893 2891 2890 2888 2887 2886 2885 2883 2882 2881 2880 2879 2878 2877 2876 2875 2874 2873 2872 2871 2870 2869 2868 2867 2866 2865 2864 2863 2863 2862
2983 2981 2979 2977 2974 2972 2970 2968 2965 2963 2962 2960 2958 2956 2954 2952 2951 2950 2948 2947 2945 2943 2941 2940 2938 2937 2935 2934 2932 2930 2927 2925 2923 2921 2919 2917 2915 2914 2912 2911 2909 2907 2906 2905 2904 2903 2902 2902 2901 2900 2899 2898 2897 2896 2894 2892 2891 2889 2887 2886 2885 2884 2883 2882 2881 2879 2878 2877 2876 2875 2874 2873 2872 2872 2871 2870 2869 2868 2867 2866 2865 2864 2863 2862 2861 2860
2980 2978 2976 2973 2971 2969 2967 2965 2963 2961 2959 2957 2955 2953 2952 2950 2949 2948 2947 2945 2943 2941 2939 2937 2936 2934 2933 2931 2929 2927 2925 2923 2921 2919 2917 2915 2913 2912 2910 2908 2907 2905 2903 2903 2902 2901 2900 2900 2899 2898 2897 2896 2895 2894 2892 2890 2889 2887 2886 2885 2884 2882 2881 2880 2879 2878 2877 2876 2875 2874 2873 2872 2871 2870 2869 2868 2867 2866 2865 2864 2863 2862 2862 2861 2860 2859
2977 2975 2973 2971 2968 2966 2964 2962 2960 2958 2957 2955 2953 2951 2949 2948 2947 2946 2944 2942 2941 2939 2937 2935 2933 2932 2930 2928 2927 2925 2922 2920 2918 2917 2915 2913 2911 2910 2908 2907 2905 2903 2902 2901 2900 2900 2898 2898 2897 2897 2896 2895 2893 2892 2890 2888 2887 2886 2884 2883 2882 2881 2880 2879 2878 2877 2876 2875 2874 2873 2872 2871 2870 2869 2868 2867 2866 2865 2864 2863 2862 2861 2860 2859 2858 2857
2974 2972 2970 2968 2966 2964 2962 2960 2958 2957 2955 2953 2951 2949 2947 2946 2945 2943 2942 2940 2938 2936 2935 2933 2931 2929 2927 2926 2924 2922 2920 2918 2917 2915 2913 2912 2910 2908 2907 2905 2903 2902 2900 2899 2898 2898 2897 2896 2895 2895 2894 2892 2891 2890 2888 2887 2885 2884 2883 2882 2881 2880 2879 2878 2877 2876 2875 2874 2873 2872 2871 2870 2869 2868 2867 2866 2865 2863 2862 2862 2861 2860 2859 2858 2857 2856
2972 2970 2967 2966 2964 2962 2960 2958 2956 2955 2953 2951 2949 2947 2946 2944 2942 2941 2939 2937 2936 2934 2932 2930 2928 2926 2924 2923 2922 2920 2918 2917 2915 2913 2912 2910 2908 2907 2905 2903 2902 2900 2898 2897 2897 2896 2896 2895 2894 2893 2892 2891 2889 2887 2886 2885 2884 2883 2882 2881 2880 2879 2878 2877 2876 2875 2874 2873 2872 2871 2870 2869 2868 2867 2866 2864 2863 2862 2862 2860 2860 2859 2858 2857 2856 2855
2970 2968 2966 2964 2962 2960 2958 2956 2954 2952 2951 2949 2947 2945 2943 2942 2940 2938 2936 2934 2933 2931 2929 2928 2926 2924 2922 2921 2920 2919 2917 2915 2913 2912 2910 2909 2907 2906 2904 2902 2901 2899 2897 2895 2894 2894 2894 2894 2893 2892 2890 2888 2887 2886 2885 2884 2883 2882 2881 2880 2879 2878 2877 2876 2875 2874 2873 2872 2871 2870 2869 2868 2867 2866 2865 2863 2862 2862 2861 2860 2859 2858 2857 2856 2856 2855
2967 2966 2963 2961 2959 2957 2955 2953 2952 2950 2948 2946 2944 2942 2941 2939 2937 2936 2934 2932 2930 2929 2927 2926 2924 2923 2921 2920 2918 2917 2916 2914 2912 2911 2909 2907 2906 2904 2903 2901 2900 2898 2896 2894 2892 2891 2892 2892 2892 2890 2888 2887 2886 2884 2883 2882 2882 2881 2880 2879 2878 2877 2877 2876 2875 2874 2873 2872 2871 2869 2868 2867 2866 2865 2864 2863 2862 2861 2860 2859 2858 2857 2857 2856 2855 2854
2964 2962 2961 2958 2956 2954 2952 2951 2949 2947 2946 2944 2942 2940 2938 2936 2935 2933 2932 2930 2928 2927 2926 2924 2923 2922 2920 2919 2917 2916 2914 2912 2911 2909 2908 2907 2905 2903 2902 2900 2899 2897 2896 2893 2891 2889 2888 2889 2889 2889 2887 2886 2884 2883 2882 2882 2881 2880 2879 2879 2878 2877 2876 2875 2874 2873 2872 2871 2870 2869 2868 2867 2865 2864 2863 2862 2861 2861 2860 2859 2858 2857 2856 2855 2855 2854
2962 2960 2958 2956 2954 2952 2950 2948 2946 2945 2943 2941 2939 2937 2936 2934 2932 2931 2930 2928 2927 2926 2924 2923 2922 2921 2920 2918 2917 2915 2913 2912 2910 2908 2907 2905 2904 2902 2901 2899 2898 2897 2895 2894 2892 2890 2888 2887 2887 2887 2886 2885 2884 2883 2882 2882 2881 2880 2879 2878 2877 2877 2876 2875 2874 2873 2872 2871 2870 2868 2867 2866 2865 2864 2863 2862 2861 2860 2859 2859 2858 2857 2856 2855 2854 2854
2959 2957 2955 2953 2951 2949 2948 2946 2944 2942 2940 2939 2937 2935 2934 2932 2931 2929 2928 2927 2926 2924 2923 2922 2921 2920 2919 2918 2917 2915 2913 2912 2909 2908 2906 2904 2903 2901 2900 2898 2897 2895 2894 2893 2892 2891 2889 2887 2887 2886 2886 2885 2884 2883 2882 2881 2880 2879 2879 2878 2877 2876 2876 2875 2873 2872 2872 2870 2869 2868 2867 2866 2865 2864 2863 2862 2861 2860 2860 2859 2858 2857 2856 2855 2854 2853
2957 2955 2953 2951 2949 2947 2946 2944 2942 2940 2938 2937 2935 2933 2932 2931 2929 2928 2927 2926 2924 2923 2922 2922 2920 2919 2918 2917 2917 2915 2913 2912 2909 2907 2906 2904 2902 2900 2899 2897 2896 2894 2893 2892 2891 2890 2889 2888 2887 2886 2885 2885 2884 2883 2882 2881 2880 2879 2878 2877 2877 2876 2875 2874 2873 2872 2871 2870 2869 2867 2867 2866 2865 2864 2863 2862 2862 2861 2860 2859 2858 2857 2856 2854 2853 2852
2955 2953 2951 2949 2947 2945 2943 2941 2940 2938 2936 2934 2933 2932 2930 2929 2928 2927 2926 2925 2924 2923 2922 2921 2920 2919 2918 2917 2916 2915 2913 2911 2909 2907 2905 2903 2902 2900 2898 2897 2895 2894 2892 2892 2891 2890 2889 2888 2887 2886 2885 2885 2884 2883 2882 2881 2880 2879 2878 2877 2877 2876 2875 2874 2873 2872 2871 2870 2868 2867 2867 2866 2865 2864 2863 2862 2862 2861 2860 2859 2858 2857 2856 2854 2853 2852
2952 2950 2948 2947 2944 2942 2940 2939 2937 2935 2934 2932 2931 2930 2929 2927 2927 2926 2925 2924 2923 2922 2921 2920 2919 2919 2918 2917 2915 2914 2912 2911 2909 2907 2905 2903 2901 2900 2898 2897 2895 2893 2892 2891 2890 2889 2889 2888 2887 2886 2885 2885 2884 2883 2883 2882 2881 2880 2879 2878 2877 2876 2875 2874 2873 2872 2871 2870 2869 2868 2867 2866 2865 2864 2863 2862 2861 2860 2859 2858 2857 2857 2855 2854 2852 2851
2950 2948 2946 2944 2942 2940 2938 2936 2935 2933 2932 2931 2930 2929 2927 2927 2926 2925 2924 2923 2923 2922 2921 2920 2919 2918 2917 2916 2915 2914 2912 2910 2908 2907 2905 2903 2901 2899 2898 2896 2895 2893 2892 2891 2890 2889 2889 2888 2887 2887 2886 2885 2884 2883 2883 2882 2881 2880 2879 2878 2877 2876 2875 2874 2873 2872 2871 2870 2869 2868 2867 2866 2865 2864 2863 2862 2861 2860 2859 2858 2857 2856 2854 2853 2852 2850
2948 2946 2943 2942 2940 2938 2936 2934 2933 2932 2930 2929 2928 2927 2927 2926 2925 2924 2924 2923 2922 2922 2921 2920 2919 2918 2917 2916 2915 2913 2912 2910 2908 2906 2904 2902 2901 2899 2898 2897 2895 2894 2892 2892 2890 2890 2889 2888 2887 2887 2886 2885 2884 2883 2882 2882 2881 2880 2879 2878 2877 2876 2875 2874 2873 2872 2871 2870 2869 2868 2867 2866 2864 2863 2862 2861 2860 2859 2858 2857 2856 2855 2854 2852 2851 2850
2946 2943 2942 2939 2937 2936 2934 2933 2931 2930 2929 2928 2927 2927 2926 2925 2924 2924 2923 2923 2922 2922 2921 2920 2920 2918 2917 2916 2914 2913 2911 2909 2907 2905 2904 2902 2900 2899 2898 2897 2895 2894 2893 2892 2891 2890 2889 2888 2888 2887 2886 2885 2885 2884 2883 2882 2881 2880 2880 2879 2878 2877 2876 2875 2874 2872 2871 2870 2869 2868 2867 2865 2864 2863 2862 2861 2859 2858 2857 2856 2855 2854 2853 2852 2851 2849
2943 2942 2940 2938 2936 2934 2933 2931 2930 2929 2928 2927 2927 2926 2925 2925 2924 2923 2923 2922 2922 2922 2921 2920 2919 2918 2917 2916 2914 2912 2910 2908 2906 2904 2903 2902 2900 2899 2898 2897 2896 2894 2894 2892 2892 2891 2890 2889 2888 2887 2887 2886 2885 2884 2883 2882 2881 2880 2880 2879 2878 2877 2876 2875 2874 2872 2871 2870 2869 2868 2867 2865 2864 2863 2862 2860 2859 2858 2857 2856 2854 2853 2852 2850 2849 2848
2941 2939 2938 2936 2934 2933 2932 2930 2929 2928 2927 2927 2926 2925 2925 2924 2924 2923 2923 2922 2922 2922 2921 2920 2919 2918 2917 2916 2914 2912 2909 2907 2905 2904 2902 2901 2900 2899 2897 2897 2896 2895 2894 2893 2892 2891 2890 2889 2888 2888 2887 2886 2885 2884 2883 2882 2882 2881 2880 2879 2878 2877 2876 2875 2874 2872 2872 2870 2869 2868 2867 2865 2864 2863 2862 2860 2859 2857 2856 2855 2853 2852 2851 2849 2848 2847
2940 2938 2936 2935 2933 2932 2930 2929 2928 2927 2927 2926 2925 2925 2924 2924 2924 2923 2923 2922 2922 2921 2921 2920 2919 2918 2917 2916 2914 2912 2909 2907 2905 2903 2902 2901 2900 2898 2897 2897 2896 2895 2894 2893 2892 2892 2891 2890 2889 2888 2887 2887 2886 2885 2884 2883 2882 2881 2880 2879 2878 2877 2877 2875 2874 2873 2872 2871 2869 2868 2867 2866 2864 2863 2862 2860 2859 2857 2856 2854 2853 2852 2850 2848 2847 2846
2938 2937 2935 2933 2932 2931 2929 2928 2927 2927 2926 2925 2924 2924 2924 2923 2923 2923 2922 2922 2921 2921 2920 2919 2918 2917 2916 2915 2913 2912 2910 2907 2905 2903 2902 2901 2900 2898 2897 2897 2896 2895 2894 2894 2893 2892 2891 2890 2889 2888 2887 2887 2886 2885 2884 2883 2882 2881 2880 2879 2878 2877 2877 2875 2874 2873 2872 2871 2870 2868 2867 2866 2865 2863 2862 2860 2858 2857 2855 2854 2852 2851 2849 2848 2847 2845
2937 2935 2933 2932 2931 2929 2928 2927 2926 2926 2925 2924 2924 2924 2923 2923 2923 2922 2922 2922 2921 2920 2919 2918 2917 2916 2915 2914 2912 2911 2910 2908 2906 2904 2902 2901 2900 2899 2898 2897 2896 2895 2895 2894 2893 2892 2892 2891 2890 2889 2888 2887 2886 2885 2885 2884 2883 2882 2881 2880 2878 2877 2876 2875 2874 2873 2872 2871 2870 2869 2867 2866 2865 2863 2862 2860 2858 2857 2855 2854 2852 2850 2849 2847 2846 2844
2936 2934 2932 2931 2929 2928 2927 2926 2925 2925 2924 2924 2924 2923 2923 2923 2923 2922 2922 2921 2920 2920 2919 2918 2917 2916 2914 2913 2912 2910 2909 2908 2906 2904 2903 2902 2900 2899 2898 2897 2897 2896 2895 2894 2894 2893 2892 2891 2890 2889 2888 2887 2887 2886 2885 2884 2883 2882 2881 2880 2879 2878 2877 2876 2875 2874 2872 2871 2870 2869 2867 2866 2865 2863 2862 2860 2858 2857 2855 2853 2852 2850 2848 2846 2845 2843
2935 2933 2931 2930 2928 2927 2926 2925 2925 2924 2924 2924 2923 2923 2923 2923 2922 2922 2922 2921 2920 2919 2918 2917 2916 2915 2914 2912 2911 2909 2908 2907 2906 2904 2903 2902 2901 2900 2899 2898 2897 2896 2896 2895 2894 2893 2892 2892 2891 2890 2889 2888 2887 2887 2885 2885 2884 2883 2882 2881 2880 2879 2878 2877 2876 2874 2873 2872 2870 2869 2868 2867 2865 2863 2862 2860 2858 2856 2854 2852 2851 2849 2847 2846 2844 2842
2933 2932 2930 2929 2927 2926 2925 2925 2924 2924 2924 2923 2923 2923 2923 2923 2922 2922 2921 2921 2920 2919 2918 2917 2916 2915 2913 2912 2910 2909 2907 2906 2905 2904 2903 2902 2901 2900 2899 2898 2897 2897 2896 2895 2894 2894 2893 2892 2891 2890 2890 2889 2888 2887 2886 2885 2884 2883 2882 2881 2880 2879 2878 2877 2876 2875 2874 2872 2871 2869 2868 2867 2865 2863 2862 2860 2858 2856 2854 2852 2850 2848 2846 2844 2843 2841
2932 2931 2929 2928 2927 2925 2925 2924 2924 2924 2923 2923 2923 2923 2923 2923 2922 2922 2921 2920 2919 2919 2918 2917 2916 2915 2913 2912 2910 2908 2907 2906 2905 2904 2903 2902 2902 2901 2900 2899 2898 2897 2896 2895 2895 2894 2893 2892 2892 2891 2890 2889 2889 2888 2887 2886 2885 2884 2883 2882 2881 2880 2879 2878 2877 2876 2875 2873 2872 2870 2868 2867 2865 2863 2861 2860 2858 2856 2854 2852 2849 2847 2846 2844 2842 2841
2931 2929 2928 2927 2926 2925 2924 2924 2923 2923 2923 2923 2923 2923 2923 2922 2922 2922 2921 2920 2919 2918 2917 2917 2916 2914 2913 2912 2910 2909 2907 2906 2905 2904 2903 2903 2902 2902 2901 2900 2899 2898 2897 2896 2895 2894 2894 2893 2892 2892 2891 2890 2889 2888 2887 2886 2885 2884 2883 2882 2882 2881 2880 2879 2877 2877 2875 2874 2872 2871 2869 2867 2865 2863 2861 2859 2857 2855 2853 2851 2849 2847 2845 2843 2842 2840
2930 2928 2927 2926 2925 2924 2924 2923 2923 2923 2923 2923 2923 2923 2923 2922 2922 2921 2920 2920 2919 2918 2917 2916 2915 2914 2913 2911 2910 2909 2907 2907 2906 2905 2904 2903 2902 2902 2901 2901 2900 2899 2898 2897 2896 2895 2894 2894 2893 2892 2891 2891 2890 2889 2888 2887 2886 2885 2884 2883 2882 2882 2881 2879 2878 2877 2876 2875 2873 2872 2870 2867 2865 2863 2861 2858 2857 2855 2852 2850 2848 2847 2845 2843 2841 2840
2929 2928 2926 2925 2924 2924 2923 2923 2923 2923 2923 2923 2923 2923 2922 2922 2921 2921 2920 2920 2919 2918 2917 2917 2915 2914 2913 2912 2910 2909 2908 2907 2906 2905 2904 2903 2903 2902 2902 2901 2900 2900 2899 2898 2897 2897 2895 2894 2893 2893 2892 2891 2890 2889 2888 2888 2887 2886 2885 2884 2883 2882 2882 2880 2879 2878 2877 2875 2874 2872 2870 2868 2866 2863 2860 2858 2856 2854 2852 2850 2847 2846 2844 2842 2841 2840